Weather reports worldwide

Advertisment
Palma De Mallorca/Son San Ju, Spain (8306): temperature & dewpoint: 10.09.2019 17:00:00 - 16.09.2019 17:00:00 (CEST)Palma De Mallorca/Son San Ju, Spain (8306): wind speed & gusts: 10.09.2019 17:00:00 - 16.09.2019 17:00:00 (CEST)Palma De Mallorca/Son San Ju, Spain (8306): wind direction: 10.09.2019 17:00:00 - 16.09.2019 17:00:00 (CEST)Palma De Mallorca/Son San Ju, Spain (8306): reduced air pressure: 10.09.2019 17:00:00 - 16.09.2019 17:00:00 (CEST)Palma De Mallorca/Son San Ju, Spain (8306): visibility: 10.09.2019 17:00:00 - 16.09.2019 17:00:00 (CEST)
Date & Time tt [°C] td [°C] ff [km/h] ff [kn] fx [km/h] fx [kn] dd ppp [hPa] vv [km]
16.09.2019 17:00:00 24,7 20,0 13 7 - - E 1016,5 10
16.09.2019 16:00:00 25,0 19,4 15 8 - - E 1016,7 10
16.09.2019 15:00:00 25,1 19,2 15 8 - - E 1017,3 10
16.09.2019 14:00:00 25,3 18,7 15 8 - - E 1017,7 10
16.09.2019 13:00:00 25,5 18,5 15 8 - - E 1017,9 10
16.09.2019 12:00:00 15,4 5,9 18 10 - - E 1018,2 10
16.09.2019 11:00:00 25,4 17,5 18 10 - - E 1018,2 10
16.09.2019 10:00:00 23,8 18,3 21 11 - - ENE 1018,0 10
16.09.2019 09:00:00 22,1 18,7 16 9 - - ENE 1017,4 10
16.09.2019 08:00:00 21,5 18,9 16 9 - - ENE 1017,1 20
16.09.2019 07:00:00 21,7 19,3 18 10 - - ENE 1017,0 10
16.09.2019 06:00:00 21,7 19,6 16 9 - - ENE 1017,1 10
16.09.2019 05:00:00 21,5 19,4 15 8 - - NE 1017,2 15
16.09.2019 04:00:00 20,9 17,8 16 9 - - ENE 1017,5 10
16.09.2019 03:00:00 20,9 16,9 15 8 - - NE 1017,8 10
16.09.2019 02:00:00 20,8 16,6 2 1 - - NE 1018,4 15
16.09.2019 01:00:00 21,6 18,2 13 7 - - ENE 1018,4 10
16.09.2019 00:00:00 21,6 18,4 11 6 - - NE 1018,9 10
15.09.2019 23:00:00 22,4 19,0 18 10 - - ENE 1018,7 15
15.09.2019 22:00:00 22,7 19,1 22 12 - - ENE 1018,3 10
15.09.2019 21:00:00 23,2 19,2 15 8 - - ENE 1018,6 10
15.09.2019 20:00:00 23,9 19,2 22 12 - - E 1018,5 18
15.09.2019 19:00:00 25,6 18,8 22 12 - - E 1018,4 10
15.09.2019 18:00:00 27,1 19,2 24 13 - - E 1018,3 10
15.09.2019 17:00:00 27,9 18,7 24 13 - - E 1018,7 10
15.09.2019 16:00:00 28,6 18,9 21 11 - - E 1018,9 10
15.09.2019 15:00:00 28,9 19,0 21 11 - - E 1019,0 10
15.09.2019 14:00:00 28,4 18,8 26 14 - - E 1019,6 18
15.09.2019 13:00:00 28,0 19,0 24 13 - - E 1019,8 10
15.09.2019 12:00:00 26,8 19,1 24 13 - - ESE 1020,1 10
15.09.2019 11:00:00 25,6 19,7 22 12 - - E 1020,3 10
15.09.2019 10:00:00 24,2 19,9 21 11 - - ENE 1020,0 10
15.09.2019 09:00:00 23,3 20,4 21 11 - - NE 1019,9 10
15.09.2019 08:00:00 22,6 20,5 22 12 - - ENE 1019,9 10
15.09.2019 07:00:00 22,4 20,2 24 13 - - NE 1019,7 10
15.09.2019 06:00:00 22,4 20,7 24 13 - - ENE 1019,8 10
15.09.2019 05:00:00 22,0 19,9 21 11 - - ENE 1019,2 10
15.09.2019 04:00:00 21,9 19,1 21 11 - - NE 1019,4 10
15.09.2019 03:00:00 21,9 19,1 16 9 - - ENE 1020,0 10
15.09.2019 02:00:00 22,3 19,1 15 8 - - NE 1021,2 18
15.09.2019 01:00:00 21,9 18,9 31 17 - - NE 1020,0 10
15.09.2019 00:00:00 21,9 18,9 26 14 - - ENE 1021,3 10
14.09.2019 23:00:00 21,9 19,2 16 9 - - ENE 1021,9 10
14.09.2019 22:00:00 22,3 18,1 22 12 - - ENE 1021,5 10
14.09.2019 21:00:00 22,7 18,5 22 12 - - ENE 1020,1 10
14.09.2019 20:00:00 23,3 18,0 26 14 - - ENE 1020,4 10
14.09.2019 19:00:00 24,4 17,6 15 8 - - ESE 1021,0 10
14.09.2019 18:00:00 26,1 18,5 22 12 - - E 1019,9 10
14.09.2019 17:00:00 27,1 18,2 28 15 - - E 1019,9 10
14.09.2019 16:00:00 27,4 18,6 22 12 - - E 1020,9 10
14.09.2019 15:00:00 27,6 15,9 22 12 - - ENE 1021,6 10
14.09.2019 14:00:00 27,5 14,3 28 15 - - E 1022,3 30
14.09.2019 13:00:00 26,5 16,5 21 11 - - E 1022,9 10
14.09.2019 12:00:00 25,3 17,5 16 9 - - ENE 1022,9 10
14.09.2019 11:00:00 23,3 16,3 28 15 - - ENE 1022,9 10
14.09.2019 10:00:00 23,6 15,2 22 12 - - ENE 1022,2 10
14.09.2019 09:00:00 19,9 16,7 11 6 - - E 1022,7 10
14.09.2019 08:00:00 20,2 15,9 15 8 - - E 1022,2 10
14.09.2019 07:00:00 20,1 15,7 15 8 - - ENE 1021,6 10
14.09.2019 06:00:00 20,4 15,4 11 6 - - E 1021,4 10
14.09.2019 05:00:00 20,4 14,9 22 12 - - ENE 1021,6 10
14.09.2019 04:00:00 20,5 16,3 11 6 - - ENE 1022,2 10
14.09.2019 03:00:00 20,0 13,5 28 15 - - NE 1021,8 10
14.09.2019 02:00:00 19,6 14,9 22 12 - - ENE 1024,3 10
14.09.2019 01:00:00 19,1 11,1 18 10 - - ENE 1023,9 10
14.09.2019 00:00:00 21,5 11,3 22 12 - - ENE 1023,9 10
13.09.2019 23:00:00 21,9 11,4 11 6 - - NNW 1024,6 10
13.09.2019 22:00:00 21,2 17,6 18 10 - - ENE 1023,1 10
13.09.2019 21:00:00 21,7 18,5 18 10 - - ENE 1022,7 10
13.09.2019 20:00:00 21,9 19,5 16 9 - - ENE 1023,1 10
13.09.2019 19:00:00 22,5 19,7 26 14 - - ENE 1022,2 10
13.09.2019 18:00:00 22,8 19,4 28 15 - - ENE 1022,6 10
13.09.2019 17:00:00 22,8 18,8 29 16 - - ENE 1023,0 10
13.09.2019 16:00:00 21,7 18,5 22 12 - - NE 1024,1 10
13.09.2019 15:00:00 21,3 19,0 31 17 - - ENE 1023,9 10
13.09.2019 14:00:00 21,5 16,6 21 11 - - ENE 1025,2 10
13.09.2019 13:00:00 19,8 15,9 16 9 - - ENE 1025,2 10
13.09.2019 12:00:00 18,9 16,8 22 12 - - ENE 1026,3 7
13.09.2019 11:00:00 19,9 18,2 26 14 - - ENE 1026,5 13
13.09.2019 10:00:00 19,7 19,0 15 8 83 45 NW 1027,6 4,0
13.09.2019 09:00:00 20,4 17,5 22 12 - - ENE 1023,4 10
13.09.2019 08:00:00 20,3 17,9 9 5 - - ENE 1023,3 10
13.09.2019 07:00:00 20,6 18,0 26 14 - - ENE 1022,5 10
13.09.2019 06:00:00 20,4 18,7 37 20 - - ENE 1021,4 10
13.09.2019 05:00:00 20,2 19,2 35 19 - - ENE 1023,0 7
13.09.2019 04:00:00 20,9 18,5 28 15 - - ENE 1024,4 10
13.09.2019 03:00:00 20,4 17,8 16 9 - - ENE 1025,3 10
13.09.2019 02:00:00 19,5 16,7 13 7 - - ENE 1026,1 10
13.09.2019 01:00:00 19,9 16,1 4 2 - - - 1025,8 10
13.09.2019 00:00:00 20,4 15,4 21 11 - - NE 1025,0 10
12.09.2019 23:00:00 20,4 16,2 22 12 - - NE 1025,0 25
12.09.2019 22:00:00 20,0 15,8 13 7 - - ENE 1025,2 10
12.09.2019 21:00:00 20,1 15,3 15 8 - - NE 1024,9 10
12.09.2019 20:00:00 20,9 15,0 22 12 - - NE 1024,7 30
12.09.2019 19:00:00 22,4 14,8 24 13 - - NE 1025,0 10
12.09.2019 18:00:00 23,4 12,7 34 18 - - ENE 1024,9 10
12.09.2019 17:00:00 24,0 12,3 35 19 - - ENE 1023,9 10
12.09.2019 16:00:00 24,1 13,5 42 23 - - ENE 1024,2 10
12.09.2019 15:00:00 24,9 13,9 37 20 - - ENE 1024,3 10
12.09.2019 14:00:00 25,7 14,6 41 22 - - ENE 1025,1 30
12.09.2019 13:00:00 25,4 14,6 37 20 - - ENE 1025,5 10
12.09.2019 12:00:00 24,0 12,8 42 23 - - ENE 1025,4 10
12.09.2019 11:00:00 23,8 14,4 42 23 - - ENE 1024,7 10
12.09.2019 10:00:00 22,3 14,2 35 19 - - ENE 1023,8 10
12.09.2019 09:00:00 20,9 15,9 22 12 - - NE 1023,0 10
12.09.2019 08:00:00 21,3 16,3 29 16 - - E 1024,3 10
12.09.2019 07:00:00 20,6 15,8 28 15 - - ENE 1023,0 10
12.09.2019 06:00:00 20,7 15,9 29 16 - - ENE 1022,1 10
12.09.2019 05:00:00 20,7 15,5 34 18 - - ENE 1021,8 25
12.09.2019 04:00:00 20,6 14,9 35 19 - - ENE 1021,8 10
12.09.2019 03:00:00 20,7 16,9 31 17 - - ENE 1022,1 10
12.09.2019 02:00:00 21,2 16,8 34 18 - - ENE 1021,3 25
12.09.2019 01:00:00 21,1 17,3 37 20 - - ENE 1020,4 10
12.09.2019 00:00:00 20,9 17,1 39 21 - - ENE 1020,3 10
11.09.2019 23:00:00 21,2 17,0 41 22 - - ENE 1019,7 10
11.09.2019 22:00:00 20,6 16,7 29 16 - - ENE 1019,2 10
11.09.2019 21:00:00 20,8 16,2 22 12 - - ENE 1019,6 10
11.09.2019 20:00:00 21,1 15,4 24 13 - - NE 1019,5 25
11.09.2019 19:00:00 21,5 14,7 29 16 - - ENE 1019,2 10
11.09.2019 18:00:00 22,0 14,3 28 15 - - ENE 1018,8 10
11.09.2019 17:00:00 23,9 13,7 31 17 - - ENE 1018,7 10
11.09.2019 16:00:00 24,5 13,7 21 11 - - ENE 1018,0 10
11.09.2019 15:00:00 22,3 13,4 22 12 - - ENE 1018,2 10
11.09.2019 14:00:00 25,2 11,3 13 7 - - ESE 1018,0 30
11.09.2019 13:00:00 23,4 11,2 11 6 - - ENE 1017,4 10
11.09.2019 12:00:00 22,0 13,0 13 7 - - E 1017,1 10
11.09.2019 11:00:00 20,3 13,1 11 6 - - E 1016,2 30
11.09.2019 10:00:00 18,1 13,4 5 3 - - E 1015,2 10
11.09.2019 09:00:00 15,3 12,8 5 3 - - N 1013,8 10
11.09.2019 08:00:00 12,8 11,5 8 4 - - E 1012,3 30
11.09.2019 07:00:00 12,7 11,8 4 2 - - NE 1011,7 10
11.09.2019 06:00:00 13,6 11,6 5 3 - - ESE 1010,1 10
11.09.2019 05:00:00 14,3 11,1 15 8 - - WNW 1009,7 10
11.09.2019 04:00:00 14,5 12,2 28 15 - - WNW 1009,6 10
11.09.2019 03:00:00 14,9 11,3 9 5 - - S 1009,0 10
11.09.2019 02:00:00 14,0 10,4 11 6 - - S 1009,1 10
11.09.2019 01:00:00 12,7 10,9 2 1 - - - 1009,4 10
11.09.2019 00:00:00 13,2 12,0 5 3 - - ENE 1009,3 10
10.09.2019 23:00:00 14,0 11,8 4 2 - - - 1008,9 10
10.09.2019 22:00:00 14,9 10,9 8 4 - - S 1008,8 10
10.09.2019 21:00:00 15,1 10,1 8 4 - - WNW 1008,1 10
10.09.2019 20:00:00 14,7 10,1 9 5 - - NNW 1007,9 10
10.09.2019 19:00:00 14,8 11,6 26 14 - - N 1008,4 7
10.09.2019 18:00:00 17,6 14,2 13 7 - - N 1008,3 8
10.09.2019 17:00:00 18,2 17,0 11 6 - - NNW 1006,0 4,0

tt = temperature
td = dewpoint
ff = wind speed
fx = gusts
dd = wind direction
ppp = reduced air pressure
vv = visibility

Next stations